^^

..:: WU History ::..




Lo storico viene creato da WUnderground con i dati che la stazione Meteomincio invia al loro server. L' aggiornamento viene fatto ogni 5 minuti circa, tuttavia possono esserci intervalli pił ampi a causa di errori, interruzioni di servizio o problemi nell' invio tramite FTP.


Storico stazione MeteoMincio
 
Giorno Sommario per Settembre 22, 2021 Unità:  Metrico    Inglese   Entrambi
Giorno Settimana Mese Anno
  Corrente: Max: Min: Media:
Temperatura: 23.7 °C 24.3 °C 14.3 °C 18.3 °C
Dew Point: 14.1 °C 15.2 °C 11.9 °C 13.5 °C
Umidità: 55% 87% 54% 75%
Velocità vento: 10km/h 15km/h 2km/h 6.8km/h
Raffica: 13km/h 21km/h - -
DirezioneEast - - East
Pressione: 1020.6 hPa 1024.4 hPa 1020.6 hPa -
Precipitazioni: 0.00 mm      
 
 
Tabulato Dati per Settembre 22, 2021
Ora Temperatura Dew Point Pressione Direzione Velocità vento Raffica Umidità Intensità pioggia (oraria) Info solare Situazione
00:04 15.8 °C 12.7 °C 1024.0 hPa ENE 6 km/h 8 km/h 82% 0.00 mm 0.00 W/m2 unknown
00:09 15.7 °C 12.7 °C 1024.0 hPa ENE 6 km/h 8 km/h 82% 0.00 mm 0.00 W/m2 unknown
00:14 15.7 °C 12.6 °C 1024.1 hPa East 5 km/h 8 km/h 82% 0.00 mm 0.00 W/m2 unknown
00:19 15.6 °C 12.6 °C 1024.2 hPa East 6 km/h 8 km/h 82% 0.00 mm 0.00 W/m2 unknown
00:24 15.5 °C 12.4 °C 1024.2 hPa East 7 km/h 10 km/h 83% 0.00 mm 0.00 W/m2 unknown
00:29 15.3 °C 12.4 °C 1024.2 hPa East 6 km/h 10 km/h 83% 0.00 mm 0.00 W/m2 unknown
00:34 15.3 °C 12.4 °C 1024.2 hPa East 8 km/h 10 km/h 83% 0.00 mm 0.00 W/m2 unknown
00:39 15.2 °C 12.3 °C 1024.2 hPa East 8 km/h 10 km/h 83% 0.00 mm 0.00 W/m2 unknown
00:44 15.1 °C 12.2 °C 1024.3 hPa NE 6 km/h 10 km/h 83% 0.00 mm 0.00 W/m2 unknown
00:49 15.1 °C 12.2 °C 1024.4 hPa NE 6 km/h 8 km/h 83% 0.00 mm 0.00 W/m2 unknown
00:54 15.0 °C 12.1 °C 1024.4 hPa NE 6 km/h 8 km/h 83% 0.00 mm 0.00 W/m2 unknown
00:59 15.0 °C 12.3 °C 1024.4 hPa NE 6 km/h 8 km/h 84% 0.00 mm 0.00 W/m2 unknown
01:04 15.0 °C 12.3 °C 1024.4 hPa ENE 4 km/h 6 km/h 84% 0.00 mm 0.00 W/m2 unknown
01:09 15.0 °C 12.3 °C 1024.4 hPa ENE 4 km/h 6 km/h 84% 0.00 mm 0.00 W/m2 unknown
01:14 14.9 °C 12.3 °C 1024.3 hPa NE 4 km/h 6 km/h 84% 0.00 mm 0.00 W/m2 unknown
01:19 14.9 °C 12.2 °C 1024.3 hPa NE 5 km/h 6 km/h 84% 0.00 mm 0.00 W/m2 unknown
01:24 14.8 °C 12.2 °C 1024.4 hPa ENE 5 km/h 6 km/h 84% 0.00 mm 0.00 W/m2 unknown
01:29 14.8 °C 12.2 °C 1024.4 hPa ENE 5 km/h 6 km/h 84% 0.00 mm 0.00 W/m2 unknown
01:34 14.8 °C 12.2 °C 1024.4 hPa ENE 4 km/h 6 km/h 84% 0.00 mm 0.00 W/m2 unknown
01:39 14.8 °C 12.1 °C 1024.4 hPa East 4 km/h 6 km/h 84% 0.00 mm 0.00 W/m2 unknown
01:44 14.7 °C 12.1 °C 1024.4 hPa ENE 4 km/h 6 km/h 84% 0.00 mm 0.00 W/m2 unknown
01:49 14.7 °C 12.1 °C 1024.4 hPa East 5 km/h 6 km/h 84% 0.00 mm 0.00 W/m2 unknown
01:54 14.7 °C 12.0 °C 1024.3 hPa East 4 km/h 6 km/h 84% 0.00 mm 0.00 W/m2 unknown
01:59 14.6 °C 11.9 °C 1024.3 hPa ENE 4 km/h 6 km/h 84% 0.00 mm 0.00 W/m2 unknown
02:04 14.6 °C 12.1 °C 1024.4 hPa ENE 6 km/h 6 km/h 85% 0.00 mm 0.00 W/m2 unknown
02:09 14.6 °C 12.1 °C 1024.3 hPa ENE 5 km/h 6 km/h 85% 0.00 mm 0.00 W/m2 unknown
02:14 14.5 °C 12.0 °C 1024.2 hPa ENE 7 km/h 8 km/h 85% 0.00 mm 0.00 W/m2 unknown
02:19 14.4 °C 11.9 °C 1024.1 hPa ENE 7 km/h 8 km/h 85% 0.00 mm 0.00 W/m2 unknown
02:24 14.4 °C 11.9 °C 1024.0 hPa ENE 6 km/h 10 km/h 85% 0.00 mm 0.00 W/m2 unknown
02:29 14.4 °C 11.9 °C 1023.9 hPa ENE 5 km/h 10 km/h 85% 0.00 mm 0.00 W/m2 unknown
02:34 14.4 °C 12.1 °C 1023.9 hPa East 6 km/h 10 km/h 86% 0.00 mm 0.00 W/m2 unknown
02:39 14.3 °C 12.0 °C 1023.9 hPa ENE 8 km/h 10 km/h 86% 0.00 mm 0.00 W/m2 unknown
02:44 14.3 °C 12.0 °C 1023.9 hPa ENE 8 km/h 10 km/h 86% 0.00 mm 0.00 W/m2 unknown
02:49 14.3 °C 12.0 °C 1023.9 hPa ENE 6 km/h 8 km/h 86% 0.00 mm 0.00 W/m2 unknown
02:54 14.3 °C 12.0 °C 1023.9 hPa ENE 6 km/h 8 km/h 86% 0.00 mm 0.00 W/m2 unknown
02:59 14.4 °C 12.1 °C 1023.9 hPa ENE 6 km/h 8 km/h 86% 0.00 mm 0.00 W/m2 unknown
03:04 14.4 °C 12.1 °C 1023.9 hPa ENE 6 km/h 8 km/h 86% 0.00 mm 0.00 W/m2 unknown
03:09 14.5 °C 12.2 °C 1023.9 hPa ENE 5 km/h 8 km/h 86% 0.00 mm 0.00 W/m2 unknown
03:14 14.6 °C 12.4 °C 1023.8 hPa ENE 6 km/h 10 km/h 87% 0.00 mm 0.00 W/m2 unknown
03:19 14.7 °C 12.5 °C 1023.8 hPa ENE 6 km/h 10 km/h 87% 0.00 mm 0.00 W/m2 unknown
03:24 14.7 °C 12.6 °C 1023.8 hPa East 4 km/h 10 km/h 87% 0.00 mm 0.00 W/m2 unknown
03:29 14.8 °C 12.7 °C 1023.8 hPa ENE 4 km/h 6 km/h 87% 0.00 mm 0.00 W/m2 unknown
03:34 14.9 °C 12.7 °C 1023.8 hPa East 5 km/h 8 km/h 87% 0.00 mm 0.00 W/m2 unknown
03:39 14.9 °C 12.7 °C 1023.8 hPa East 6 km/h 8 km/h 87% 0.00 mm 0.00 W/m2 unknown
03:44 15.0 °C 12.8 °C 1023.8 hPa ENE 6 km/h 8 km/h 87% 0.00 mm 0.00 W/m2 unknown
03:49 15.1 °C 12.9 °C 1023.8 hPa ENE 7 km/h 11 km/h 87% 0.00 mm 0.00 W/m2 unknown
03:54 15.1 °C 12.8 °C 1023.8 hPa ENE 6 km/h 11 km/h 86% 0.00 mm 0.00 W/m2 unknown
03:59 15.2 °C 12.8 °C 1023.7 hPa East 6 km/h 8 km/h 86% 0.00 mm 0.00 W/m2 unknown
04:04 15.2 °C 12.9 °C 1023.7 hPa ENE 4 km/h 8 km/h 86% 0.00 mm 0.00 W/m2 unknown
04:09 15.3 °C 12.9 °C 1023.7 hPa ENE 4 km/h 6 km/h 86% 0.00 mm 0.00 W/m2 unknown
04:14 15.3 °C 13.0 °C 1023.8 hPa ENE 4 km/h 6 km/h 86% 0.00 mm 0.00 W/m2 unknown
04:19 15.3 °C 13.0 °C 1023.7 hPa ENE 3 km/h 6 km/h 86% 0.00 mm 0.00 W/m2 unknown
04:24 15.4 °C 13.1 °C 1023.7 hPa ENE 4 km/h 6 km/h 86% 0.00 mm 0.00 W/m2 unknown
04:29 15.4 °C 13.1 °C 1023.6 hPa ENE 6 km/h 8 km/h 86% 0.00 mm 0.00 W/m2 unknown
04:34 15.4 °C 13.1 °C 1023.5 hPa ENE 6 km/h 8 km/h 86% 0.00 mm 0.00 W/m2 unknown
04:39 15.5 °C 13.2 °C 1023.5 hPa ENE 6 km/h 8 km/h 86% 0.00 mm 0.00 W/m2 unknown
04:44 15.5 °C 13.2 °C 1023.5 hPa ENE 6 km/h 8 km/h 86% 0.00 mm 0.00 W/m2 unknown
04:49 15.5 °C 13.2 °C 1023.3 hPa ENE 4 km/h 8 km/h 86% 0.00 mm 0.00 W/m2 unknown
04:54 15.6 °C 13.2 °C 1023.3 hPa ENE 4 km/h 6 km/h 86% 0.00 mm 0.00 W/m2 unknown
04:59 15.5 °C 13.2 °C 1023.2 hPa East 3 km/h 6 km/h 86% 0.00 mm 0.00 W/m2 unknown
05:04 15.6 °C 13.2 °C 1023.1 hPa East 3 km/h 5 km/h 86% 0.00 mm 0.00 W/m2 unknown
05:09 15.6 °C 13.2 °C 1023.1 hPa East 2 km/h 3 km/h 86% 0.00 mm 0.00 W/m2 unknown
05:14 15.6 °C 13.2 °C 1023.1 hPa ENE 3 km/h 6 km/h 86% 0.00 mm 0.00 W/m2 unknown
05:19 15.6 °C 13.1 °C 1023.1 hPa ENE 4 km/h 6 km/h 85% 0.00 mm 0.00 W/m2 unknown
05:24 15.6 °C 13.1 °C 1023.1 hPa ESE 5 km/h 6 km/h 85% 0.00 mm 0.00 W/m2 unknown
05:29 15.6 °C 13.1 °C 1023.0 hPa ESE 5 km/h 6 km/h 85% 0.00 mm 0.00 W/m2 unknown
05:34 15.6 °C 13.3 °C 1022.9 hPa ESE 4 km/h 6 km/h 86% 0.00 mm 0.00 W/m2 unknown
05:39 15.6 °C 13.3 °C 1022.9 hPa East 4 km/h 6 km/h 86% 0.00 mm 0.00 W/m2 unknown
05:44 15.7 °C 13.3 °C 1022.8 hPa ENE 5 km/h 6 km/h 86% 0.00 mm 0.00 W/m2 unknown
05:49 15.7 °C 13.3 °C 1022.9 hPa ENE 5 km/h 6 km/h 86% 0.00 mm 0.00 W/m2 unknown
05:54 15.7 °C 13.3 °C 1022.8 hPa ENE 5 km/h 7 km/h 86% 0.00 mm 0.00 W/m2 unknown
05:59 15.7 °C 13.4 °C 1022.8 hPa NE 5 km/h 8 km/h 86% 0.00 mm 0.00 W/m2 unknown
06:04 15.7 °C 13.4 °C 1022.7 hPa NNE 6 km/h 6 km/h 86% 0.00 mm 0.00 W/m2 unknown
06:09 15.7 °C 13.4 °C 1022.8 hPa NNE 7 km/h 8 km/h 86% 0.00 mm 0.00 W/m2 unknown
06:14 15.8 °C 13.4 °C 1022.8 hPa NE 7 km/h 10 km/h 86% 0.00 mm 0.00 W/m2 unknown
06:19 15.8 °C 13.4 °C 1022.8 hPa NE 8 km/h 11 km/h 86% 0.00 mm 0.00 W/m2 unknown
06:24 15.8 °C 13.3 °C 1022.8 hPa NE 6 km/h 11 km/h 85% 0.00 mm 0.00 W/m2 unknown
06:29 15.8 °C 13.3 °C 1022.8 hPa NE 9 km/h 11 km/h 85% 0.00 mm 0.00 W/m2 unknown
06:34 15.8 °C 13.3 °C 1022.7 hPa ENE 8 km/h 11 km/h 85% 0.00 mm 0.00 W/m2 unknown
06:39 15.8 °C 13.1 °C 1022.7 hPa ENE 9 km/h 11 km/h 84% 0.00 mm 0.00 W/m2 unknown
06:44 15.9 °C 13.2 °C 1022.6 hPa ENE 8 km/h 13 km/h 84% 0.00 mm 0.00 W/m2 unknown
06:49 15.8 °C 12.9 °C 1022.6 hPa East 9 km/h 13 km/h 83% 0.00 mm 0.00 W/m2 unknown
06:54 15.8 °C 12.9 °C 1022.6 hPa ENE 8 km/h 11 km/h 83% 0.00 mm 0.00 W/m2 unknown
06:59 15.8 °C 12.9 °C 1022.7 hPa NE 8 km/h 10 km/h 83% 0.00 mm 0.00 W/m2 unknown
07:04 15.8 °C 12.9 °C 1022.7 hPa NE 5 km/h 10 km/h 83% 0.00 mm 0.00 W/m2 unknown
07:09 15.8 °C 12.9 °C 1022.7 hPa ENE 5 km/h 6 km/h 83% 0.00 mm 0.00 W/m2 unknown
07:14 15.8 °C 12.9 °C 1022.7 hPa ENE 6 km/h 6 km/h 83% 0.00 mm 0.00 W/m2 unknown
07:19 15.8 °C 12.9 °C 1022.7 hPa East 5 km/h 8 km/h 83% 0.00 mm 0.00 W/m2 unknown
07:24 15.8 °C 12.9 °C 1022.7 hPa East 4 km/h 8 km/h 83% 0.00 mm 5.00 W/m2 unknown
07:29 15.8 °C 12.9 °C 1022.7 hPa East 4 km/h 8 km/h 83% 0.00 mm 9.00 W/m2 unknown
07:34 15.8 °C 13.1 °C 1022.7 hPa East 3 km/h 6 km/h 84% 0.00 mm 11.00 W/m2 unknown
07:39 15.8 °C 13.1 °C 1022.7 hPa East 5 km/h 6 km/h 84% 0.00 mm 14.00 W/m2 unknown
07:44 15.8 °C 13.1 °C 1022.8 hPa East 6 km/h 8 km/h 84% 0.00 mm 18.00 W/m2 unknown
07:49 15.8 °C 13.1 °C 1022.8 hPa East 4 km/h 7 km/h 84% 0.00 mm 23.00 W/m2 unknown
07:54 15.8 °C 13.1 °C 1022.8 hPa ENE 5 km/h 8 km/h 84% 0.00 mm 28.00 W/m2 unknown
07:59 15.8 °C 13.1 °C 1022.8 hPa ENE 4 km/h 6 km/h 84% 0.00 mm 28.00 W/m2 unknown
08:04 15.8 °C 13.1 °C 1022.8 hPa ENE 4 km/h 6 km/h 84% 0.00 mm 30.00 W/m2 unknown
08:09 15.9 °C 13.2 °C 1022.9 hPa ESE 4 km/h 6 km/h 84% 0.00 mm 46.00 W/m2 unknown
08:14 15.9 °C 13.2 °C 1023.0 hPa SSE 5 km/h 6 km/h 84% 0.00 mm 56.00 W/m2 unknown
08:19 16.1 °C 13.3 °C 1023.0 hPa South 5 km/h 6 km/h 84% 0.00 mm 62.00 W/m2 unknown
08:24 16.1 °C 13.4 °C 1023.0 hPa SSE 4 km/h 6 km/h 84% 0.00 mm 72.00 W/m2 unknown
08:29 16.2 °C 13.5 °C 1023.1 hPa SSW 4 km/h 6 km/h 84% 0.00 mm 81.00 W/m2 unknown
08:34 16.3 °C 13.6 °C 1023.1 hPa ESE 5 km/h 8 km/h 84% 0.00 mm 91.00 W/m2 unknown
08:39 16.4 °C 13.7 °C 1023.1 hPa ESE 5 km/h 8 km/h 84% 0.00 mm 98.00 W/m2 unknown
08:44 16.6 °C 13.7 °C 1023.2 hPa South 4 km/h 6 km/h 84% 0.00 mm 109.00 W/m2 unknown
08:49 16.7 °C 13.8 °C 1023.2 hPa SE 3 km/h 6 km/h 83% 0.00 mm 155.00 W/m2 unknown
08:54 16.8 °C 13.9 °C 1023.2 hPa ESE 4 km/h 6 km/h 83% 0.00 mm 146.00 W/m2 unknown
08:59 16.9 °C 13.9 °C 1023.2 hPa SE 4 km/h 6 km/h 83% 0.00 mm 213.00 W/m2 unknown
09:04 17.1 °C 14.0 °C 1023.3 hPa ESE 3 km/h 6 km/h 82% 0.00 mm 156.00 W/m2 unknown
09:09 17.2 °C 13.9 °C 1023.3 hPa SE 2 km/h 5 km/h 81% 0.00 mm 155.00 W/m2 unknown
09:14 17.3 °C 14.1 °C 1023.2 hPa ESE 4 km/h 6 km/h 81% 0.00 mm 195.00 W/m2 unknown
09:19 17.5 °C 14.2 °C 1023.1 hPa SE 5 km/h 6 km/h 81% 0.00 mm 288.00 W/m2 unknown
09:24 17.7 °C 14.2 °C 1023.1 hPa SE 4 km/h 6 km/h 80% 0.00 mm 304.00 W/m2 unknown
09:29 18.0 °C 14.3 °C 1023.0 hPa ESE 4 km/h 8 km/h 80% 0.00 mm 294.00 W/m2 unknown
09:34 18.2 °C 14.5 °C 1023.1 hPa SE 4 km/h 8 km/h 79% 0.00 mm 304.00 W/m2 unknown
09:39 18.4 °C 14.4 °C 1023.1 hPa ESE 6 km/h 8 km/h 78% 0.00 mm 292.00 W/m2 unknown
09:44 18.4 °C 14.3 °C 1023.1 hPa ESE 8 km/h 10 km/h 77% 0.00 mm 241.00 W/m2 unknown
09:49 18.5 °C 14.2 °C 1023.1 hPa SE 5 km/h 10 km/h 76% 0.00 mm 309.00 W/m2 unknown
09:54 18.7 °C 14.3 °C 1023.1 hPa SE 4 km/h 6 km/h 76% 0.00 mm 309.00 W/m2 unknown
09:59 18.9 °C 14.5 °C 1023.2 hPa SE 6 km/h 7 km/h 76% 0.00 mm 371.00 W/m2 unknown
10:04 19.1 °C 14.6 °C 1023.2 hPa ESE 7 km/h 10 km/h 76% 0.00 mm 371.00 W/m2 unknown
10:09 19.3 °C 14.6 °C 1023.1 hPa ESE 8 km/h 10 km/h 75% 0.00 mm 336.00 W/m2 unknown
10:14 19.4 °C 14.4 °C 1023.2 hPa ESE 11 km/h 13 km/h 73% 0.00 mm 373.00 W/m2 unknown
10:19 19.6 °C 14.3 °C 1023.2 hPa ESE 11 km/h 13 km/h 72% 0.00 mm 380.00 W/m2 unknown
10:24 19.7 °C 14.3 °C 1023.2 hPa East 10 km/h 13 km/h 71% 0.00 mm 401.00 W/m2 unknown
10:29 19.8 °C 14.2 °C 1023.1 hPa East 9 km/h 11 km/h 70% 0.00 mm 401.00 W/m2 unknown
10:34 19.8 °C 14.4 °C 1023.1 hPa ESE 10 km/h 11 km/h 71% 0.00 mm 308.00 W/m2 unknown
10:39 19.9 °C 14.5 °C 1023.1 hPa East 7 km/h 11 km/h 71% 0.00 mm 504.00 W/m2 unknown
10:44 20.1 °C 14.4 °C 1023.1 hPa ESE 7 km/h 11 km/h 71% 0.00 mm 471.00 W/m2 unknown
10:49 20.1 °C 14.2 °C 1023.1 hPa SSE 6 km/h 11 km/h 69% 0.00 mm 471.00 W/m2 unknown
10:54 20.1 °C 14.4 °C 1023.0 hPa SE 4 km/h 8 km/h 70% 0.00 mm 438.00 W/m2 unknown
10:59 20.2 °C 14.4 °C 1023.0 hPa ESE 7 km/h 10 km/h 70% 0.00 mm 642.00 W/m2 unknown
11:04 20.7 °C 14.4 °C 1023.1 hPa SSE 7 km/h 10 km/h 69% 0.00 mm 689.00 W/m2 unknown
11:09 20.7 °C 14.1 °C 1023.1 hPa South 6 km/h 10 km/h 66% 0.00 mm 394.00 W/m2 unknown
11:14 20.7 °C 14.1 °C 1023.0 hPa SSE 7 km/h 11 km/h 66% 0.00 mm 306.00 W/m2 unknown
11:19 20.6 °C 14.0 °C 1022.9 hPa SE 8 km/h 11 km/h 66% 0.00 mm 295.00 W/m2 unknown
11:24 20.6 °C 14.2 °C 1022.9 hPa SSE 7 km/h 10 km/h 67% 0.00 mm 374.00 W/m2 unknown
11:29 20.6 °C 14.2 °C 1022.8 hPa SSE 5 km/h 10 km/h 67% 0.00 mm 485.00 W/m2 unknown
11:34 20.8 °C 14.4 °C 1022.9 hPa SE 5 km/h 10 km/h 67% 0.00 mm 485.00 W/m2 unknown
11:39 20.8 °C 14.2 °C 1022.9 hPa SE 7 km/h 10 km/h 66% 0.00 mm 378.00 W/m2 unknown
11:44 20.7 °C 14.4 °C 1022.9 hPa ESE 8 km/h 11 km/h 67% 0.00 mm 496.00 W/m2 unknown
11:49 20.9 °C 14.6 °C 1022.9 hPa ESE 10 km/h 13 km/h 67% 0.00 mm 654.00 W/m2 unknown
11:54 21.1 °C 14.5 °C 1022.8 hPa ESE 8 km/h 13 km/h 67% 0.00 mm 631.00 W/m2 unknown
11:59 21.3 °C 14.4 °C 1022.8 hPa ESE 8 km/h 11 km/h 65% 0.00 mm 571.00 W/m2 unknown
12:04 21.4 °C 14.4 °C 1022.8 hPa ESE 10 km/h 13 km/h 65% 0.00 mm 636.00 W/m2 unknown
12:09 21.4 °C 14.1 °C 1022.7 hPa ESE 11 km/h 15 km/h 63% 0.00 mm 659.00 W/m2 unknown
12:14 21.7 °C 14.9 °C 1022.6 hPa ESE 10 km/h 15 km/h 66% 0.00 mm 677.00 W/m2 unknown
12:19 21.9 °C 15.0 °C 1022.6 hPa ESE 12 km/h 15 km/h 65% 0.00 mm 673.00 W/m2 unknown
12:24 22.1 °C 15.2 °C 1022.5 hPa SSE 12 km/h 19 km/h 65% 0.00 mm 679.00 W/m2 unknown
12:29 22.0 °C 14.1 °C 1022.4 hPa South 10 km/h 19 km/h 61% 0.00 mm 677.00 W/m2 unknown
12:34 22.1 °C 14.4 °C 1022.4 hPa ESE 13 km/h 19 km/h 62% 0.00 mm 679.00 W/m2 unknown
12:39 22.0 °C 14.1 °C 1022.3 hPa East 11 km/h 16 km/h 61% 0.00 mm 677.00 W/m2 unknown
12:44 22.2 °C 14.3 °C 1022.3 hPa SE 6 km/h 10 km/h 61% 0.00 mm 673.00 W/m2 unknown
12:49 22.3 °C 14.3 °C 1022.1 hPa SSE 10 km/h 13 km/h 61% 0.00 mm 680.00 W/m2 unknown
12:54 22.4 °C 14.5 °C 1022.1 hPa South 12 km/h 15 km/h 61% 0.00 mm 693.00 W/m2 unknown
12:59 22.5 °C 14.1 °C 1022.1 hPa South 10 km/h 15 km/h 59% 0.00 mm 696.00 W/m2 unknown
13:04 22.6 °C 14.1 °C 1022.1 hPa SSE 10 km/h 15 km/h 59% 0.00 mm 696.00 W/m2 unknown
13:09 22.6 °C 13.9 °C 1022.1 hPa South 14 km/h 17 km/h 58% 0.00 mm 698.00 W/m2 unknown
13:14 22.4 °C 13.7 °C 1022.2 hPa South 15 km/h 17 km/h 58% 0.00 mm 693.00 W/m2 unknown
13:19 22.4 °C 13.7 °C 1022.1 hPa South 10 km/h 17 km/h 58% 0.00 mm 698.00 W/m2 unknown
13:24 22.6 °C 13.9 °C 1021.9 hPa ESE 11 km/h 15 km/h 58% 0.00 mm 691.00 W/m2 unknown
13:29 22.8 °C 13.8 °C 1021.9 hPa SE 10 km/h 15 km/h 58% 0.00 mm 691.00 W/m2 unknown
13:34 22.9 °C 13.9 °C 1021.8 hPa ESE 9 km/h 13 km/h 57% 0.00 mm 686.00 W/m2 unknown
13:39 23.1 °C 14.0 °C 1021.8 hPa South 9 km/h 11 km/h 57% 0.00 mm 687.00 W/m2 unknown
13:44 23.1 °C 13.5 °C 1021.7 hPa SSE 9 km/h 13 km/h 55% 0.00 mm 682.00 W/m2 unknown
13:49 23.1 °C 13.3 °C 1021.7 hPa SSW 6 km/h 13 km/h 54% 0.00 mm 682.00 W/m2 unknown
13:54 23.1 °C 13.2 °C 1021.6 hPa ESE 6 km/h 11 km/h 54% 0.00 mm 682.00 W/m2 unknown
13:59 23.2 °C 13.6 °C 1021.6 hPa SE 7 km/h 8 km/h 55% 0.00 mm 680.00 W/m2 unknown
14:04 23.3 °C 13.8 °C 1021.6 hPa ESE 7 km/h 10 km/h 55% 0.00 mm 710.00 W/m2 unknown
14:09 23.7 °C 14.8 °C 1021.5 hPa North 4 km/h 10 km/h 58% 0.00 mm 728.00 W/m2 unknown
14:14 23.8 °C 14.7 °C 1021.5 hPa ESE 8 km/h 11 km/h 57% 0.00 mm 728.00 W/m2 unknown
14:19 23.8 °C 14.4 °C 1021.5 hPa ESE 8 km/h 11 km/h 56% 0.00 mm 710.00 W/m2 unknown
14:24 23.7 °C 14.1 °C 1021.4 hPa SE 8 km/h 11 km/h 55% 0.00 mm 731.00 W/m2 unknown
14:29 23.8 °C 14.2 °C 1021.4 hPa SE 5 km/h 11 km/h 55% 0.00 mm 731.00 W/m2 unknown
14:34 23.8 °C 13.9 °C 1021.4 hPa ENE 6 km/h 10 km/h 54% 0.00 mm 721.00 W/m2 unknown
14:39 23.8 °C 13.9 °C 1021.3 hPa ESE 10 km/h 15 km/h 54% 0.00 mm 689.00 W/m2 unknown
14:44 23.8 °C 13.9 °C 1021.3 hPa ESE 10 km/h 15 km/h 54% 0.00 mm 707.00 W/m2 unknown
14:49 23.7 °C 13.8 °C 1021.3 hPa ESE 7 km/h 11 km/h 54% 0.00 mm 624.00 W/m2 unknown
14:54 23.6 °C 14.3 °C 1021.3 hPa East 8 km/h 13 km/h 56% 0.00 mm 682.00 W/m2 unknown
14:59 23.8 °C 14.1 °C 1021.3 hPa East 15 km/h 21 km/h 55% 0.00 mm 696.00 W/m2 unknown
15:04 23.8 °C 14.4 °C 1021.2 hPa East 15 km/h 21 km/h 56% 0.00 mm 663.00 W/m2 unknown
15:09 23.8 °C 14.2 °C 1021.2 hPa East 8 km/h 21 km/h 55% 0.00 mm 670.00 W/m2 unknown
15:14 24.0 °C 14.2 °C 1021.2 hPa ESE 8 km/h 13 km/h 55% 0.00 mm 666.00 W/m2 unknown
15:19 24.0 °C 14.1 °C 1021.1 hPa ESE 10 km/h 15 km/h 54% 0.00 mm 661.00 W/m2 unknown
15:24 24.2 °C 14.6 °C 1021.1 hPa East 10 km/h 15 km/h 55% 0.00 mm 649.00 W/m2 unknown
15:29 24.3 °C 14.6 °C 1021.1 hPa East 12 km/h 15 km/h 55% 0.00 mm 613.00 W/m2 unknown
15:34 24.2 °C 14.7 °C 1021.0 hPa ESE 8 km/h 15 km/h 56% 0.00 mm 591.00 W/m2 unknown
15:39 24.0 °C 14.7 °C 1021.0 hPa East 9 km/h 11 km/h 56% 0.00 mm 570.00 W/m2 unknown
15:44 23.9 °C 14.3 °C 1021.0 hPa ESE 8 km/h 11 km/h 55% 0.00 mm 555.00 W/m2 unknown
15:49 23.9 °C 14.3 °C 1021.0 hPa ESE 8 km/h 13 km/h 55% 0.00 mm 529.00 W/m2 unknown
15:54 23.8 °C 14.2 °C 1020.9 hPa ESE 11 km/h 13 km/h 55% 0.00 mm 492.00 W/m2 unknown
15:59 23.7 °C 14.2 °C 1020.9 hPa ESE 11 km/h 15 km/h 55% 0.00 mm 499.00 W/m2 unknown
16:04 23.8 °C 14.5 °C 1020.9 hPa ESE 8 km/h 15 km/h 56% 0.00 mm 482.00 W/m2 unknown
16:09 23.9 °C 14.3 °C 1020.9 hPa ESE 8 km/h 11 km/h 55% 0.00 mm 445.00 W/m2 unknown
16:14 23.9 °C 14.6 °C 1020.8 hPa ESE 12 km/h 15 km/h 56% 0.00 mm 431.00 W/m2 unknown
16:19 23.9 °C 14.6 °C 1020.8 hPa East 12 km/h 15 km/h 56% 0.00 mm 425.00 W/m2 unknown
16:24 23.8 °C 14.2 °C 1020.8 hPa East 11 km/h 13 km/h 55% 0.00 mm 438.00 W/m2 unknown
16:29 23.7 °C 14.2 °C 1020.8 hPa East 10 km/h 13 km/h 55% 0.00 mm 439.00 W/m2 unknown
16:34 23.8 °C 14.2 °C 1020.7 hPa ESE 9 km/h 13 km/h 55% 0.00 mm 410.00 W/m2 unknown
16:39 23.7 °C 14.2 °C 1020.7 hPa East 10 km/h 13 km/h 55% 0.00 mm 338.00 W/m2 unknown
16:44 23.7 °C 14.1 °C 1020.6 hPa East 10 km/h 13 km/h 55% 0.00 mm 338.00 W/m2 unknown
Stazione Meteorologica MeteoMincio Rivalta s/M (MN)
Con i complimenti di Weather Underground - 2 mb



METEO PILLOLE
Maggior quantità di pioggia caduta in un ora
Holt (263.11 m), Missouri - USA
il 22 giugno 1947 caddero 305mm.
Share

Do NOT follow this link or you will be banned from the site!